Regional Weather Roundup
Issued by NWS Northern Indiana

Home | Current Version | Previous Version | Graphics & Text | Print | Product List | Glossary On
Versions: 1 2 3 4 5 6 7 8 9 10 11 12 13 14 15 16 17 18 19 20 21 22 23 24 25 26 27 28 29 30 31 32 33 34 35 36 37 38 39 40 41 42 43 44 45 46 47 48 49 50
000
ASUS43 KIWX 311510
RWRIWX

KIWX WEATHER ROUNDUP
NATIONAL WEATHER SERVICE NORTHERN INDIANA
1000 AM EST SAT JAN 31 2015

NOTE: "FAIR" INDICATES FEW OR NO CLOUDS BELOW 12,000 FEET WITH NO
SIGNIFICANT WEATHER AND/OR OBSTRUCTIONS TO VISIBILITY.

* THESE STATIONS ARE NOT UNDER NWS QUALITY CONTROL. THEY ALSO MAY NOT
  REPORT WEATHER SUCH AS PRECIPITATION OR FOG.

INZ001>027-311600-
NORTHERN INDIANA

CITY           SKY/WX    TMP DP  RH WIND       PRES   REMARKS
GARY*          MOSUNNY   30  19  64 SW14      30.26F WCI  20
VALPARAISO     SUNNY     27  21  78 SW10      30.26F WCI  17
MICHIGAN CITY* SUNNY     30  19  64 SW10G16   30.26F WCI  21
LAPORTE*       SUNNY     29  23  79 SW10      30.27S WCI  20
KNOX*          MOSUNNY   30  12  47 SW13      30.26F WCI  20
SOUTH BEND     SUNNY     28  20  71 SW13      30.26F WCI  17
GOSHEN         SUNNY     26  20  77 SW12      30.27S WCI  16
MONTICELLO*    MOSUNNY   28  22  79 SW9       30.30S WCI  19
LOGANSPORT*    SUNNY     28  23  80 SW12      30.31S WCI  18
ROCHESTER*     SUNNY     32  23  69 SW10      30.29F WCI  24
WARSAW*        SUNNY     28  19  69 SW6       30.28F WCI  22
ANGOLA*        SUNNY     23  18  80 SW8       30.25F WCI  14
FORT WAYNE     MOSUNNY   26  19  74 SW12      30.31S WCI  16
HUNTINGTON*    SUNNY     27  16  63 SW6       30.30F WCI  20
PERU/GRISSOM   SUNNY     28  21  76 SW12      30.30S WCI  18
MARION*        SUNNY     26  21  79 SW9       30.32S WCI  17

$$
INZ028>050-311600-
CENTRAL INDIANA

CITY           SKY/WX    TMP DP  RH WIND       PRES   REMARKS
LAFAYETTE      MOSUNNY   28  21  75 SW7       30.32S WCI  21
KOKOMO*        SUNNY     28  21  74 SW13      30.32R WCI  18
MUNCIE*        MOSUNNY   27  18  69 SW7       30.32S WCI  19
INDIANAPOLIS   CLOUDY    24  19  81 SW7       30.35R WCI  16

$$
MIZ043>046-050>051-056>058-064>065-071>073-077>080-311600-
SOUTHWEST LOWER MICHIGAN

CITY           SKY/WX    TMP DP  RH WIND       PRES   REMARKS
BATTLE CREEK   SUNNY     24  16  71 SW9       30.23F WCI  14
BENTON HARBOR  MOSUNNY   26  20  77 S9        30.24F WCI  17
COLDWATER*     SUNNY     25  18  74 SW10      30.24F WCI  14
HILLSDALE*     SUNNY     22  16  78 SW6       30.23F WCI  15
HOLLAND        PTSUNNY   27  21  78 S10       30.21F WCI  17
GRAND RAPIDS   MOSUNNY   24  18  77 SW10      30.21F WCI  14
KALAMAZOO      SUNNY     22  16  78 SW10      30.24F WCI  11
STURGIS*       SUNNY     25  19  80 CALM      30.24F
THREE RIVERS*  FAIR      25  19  78 SW8       30.25F WCI  16

$$
OHZ001>008-015>018-024>025-311600-
NORTHWEST OHIO

CITY           SKY/WX    TMP DP  RH WIND       PRES   REMARKS
WAUSEON*       FAIR      23  18  80 SW9G16    30.29S WCI  13
DEFIANCE       SUNNY     24  17  74 SW9       30.31F WCI  14
FINDLAY        SUNNY     22  15  75 S13       30.31F WCI  10
TOLEDO EXPRESS SUNNY     23  16  74 SW8       30.29F WCI  14
TOLEDO METCALF SUNNY     23  15  71 SW13      30.31F WCI  11
LIMA           SUNNY     24  15  68 SW13      30.32S WCI  12

$$
AND FOR LAKE MICHIGAN COASTAL AND OPEN LAKE BUOY OBSERVATIONS

STATION/POSITION TEMP    WIND        PRES    VSBY  WAVE
                 AIR SEA DIR/SP/G                  HT/PER
                 (F)     (DEG/KT/KT) (MB)    (MI)  (FT/S)
CALUMET HARBOR    29     220/  8/ 13   N/A
MICHIGAN CITY     28     190/ 13/ 16   N/A
SAINT JOSEPH      27     180/ 13/ 16 1024.4F

$$
&&



USA.gov is the U.S. government's official web portal to all federal, state and local government web resources and services.